sat.trackr.live / text

‹ back to catalog

STARLINK-35992

NORAD 66852 · 2025-281E

PAYLOAD ACTIVE UNKNOWN

§ Identity

Operator
Country
US
Launch date
2025-12-02
Launch site
AFETR
Launch vehicle
Mass (kg)
RCS (m²)

Purposes: comms

External: N2YO · Heavens-Above · Gunter

§ Orbital elements

Epoch: 2026-05-25T00:54:55.198368Z

Period
94.26 min
Inclination
42.9966°
Eccentricity
0.0000952
Mean motion
15.27610380 rev/d
Perigee alt
482.3 km
Apogee alt
483.6 km
Semi-major
6,861.1 km
B*
5.6445e-4
RAAN
272.1613°
Arg perigee
331.1966°
Mean anomaly
28.8833°
Rev number
2,786

§ Raw data

STARLINK-359921 66852U 25281E   26145.03813887  .00015317  00000+0  56445-3 0  99942 66852  42.9966 272.1613 0000952 331.1966  28.8833 15.27610380 27860

JSON: /api/v1/satellites/66852 · /tle

For live sub-satellite position, see the globe view (requires WebGL).

§ Visibility from observer

Set your observer location to see the next 7 days of passes ≥ 10°. The values pass through the URL so the page stays shareable.

No JS? Fill the form by hand. The geolocation button needs JavaScript.